Weather History for Pond Inlet, NU

Change the Weather History Date:

Sunday, December 30, 2012

  Actual Average Record
Temperature  
Mean Temperature -16 °F -  
Max Temperature -13 °F -14 °F 1 °F (2008)
Min Temperature -18 °F -25 °F -40 °F (1997)
Degree Days  
Heating Degree Days 80    
Moisture  
Dew Point -22 °F    
Average Humidity 68    
Maximum Humidity 77    
Minimum Humidity 53    
Precipitation  
Precipitation 0.00 in - - ()
Sea Level Pressure  
Sea Level Pressure 30.03 in    
Wind  
Wind Speed 2 mph ()    
Max Wind Speed 4 mph    
Max Gust Speed -    
Visibility 7.5 miles    
Events Snow    
Averages and records for this station are not official NWS values.
T = Trace of Precipitation, MM = Missing Value Source: Averaged Metar Reports

Daily Weather History Graph

Daily Weather History Graph

Search for Another Location

Airport:

Trip Planner

Search our weather history database for the weather conditions in past years. The results will help you decide how hot, cold, wet, or windy it might be!

Date:

Astronomy

Dec. 31, 1969 Rise Set
Actual Time Sun does not rise Sun does not rise
Civil Twilight 11:37 AM EST 12:52 PM EST
Nautical Twilight 8:44 AM EST 3:44 PM EST
Astronomical Twilight 7:10 AM EST 5:19 PM EST
Moon 4:40 PM EST 11:36 AM EST
Length of Visible Light 1h 14m
Length of Day
0h 00m
Waning Gibbous, 95% of the Moon is Illuminated
Dec 30
Waning Gibbous
Jan 4
Last Quarter
Jan 11
New
Jan 18
First Quarter
Jan 26
Full

Hourly Weather History & Observations

Time (EST) Temp. Windchill Dew Point Humidity Pressure Visibility Wind Dir Wind Speed Gust Speed Precip Events Conditions
12:00 AM -18.4 °F - -25.6 °F 70% 30.03 in 9.0 mi SSW 2.3 mph - N/A   Overcast
1:00 AM -16 °F - -23 °F 54% 30.04 in 9 mi South 3.5 mph - -   Overcast
1:00 AM -16.6 °F -26.8 °F -23.8 °F 70% 30.04 in 9.0 mi South 3.5 mph - N/A   Overcast
2:00 AM -16.6 °F - -23.8 °F 70% 30.04 in 9.0 mi SSW 2.3 mph - N/A   Mostly Cloudy
3:00 AM -16.6 °F - -23.8 °F 70% 30.04 in 9.0 mi Calm Calm - N/A   Mostly Cloudy
4:00 AM -18 °F - -25 °F 53% 30.05 in 9 mi Calm Calm - -  
4:00 AM -18.4 °F - -25.6 °F 70% 30.05 in 9.0 mi Calm Calm - N/A   Partly Cloudy
5:00 AM -16.6 °F - -23.8 °F 70% 30.05 in 9.0 mi Calm Calm - N/A   Overcast
6:00 AM -14.8 °F - -22.0 °F 70% 30.06 in 9.0 mi Calm Calm - N/A   Overcast
7:00 AM -16 °F - -23 °F 54% 30.06 in 9 mi Calm Calm - -   Overcast
8:00 AM -16.6 °F - -23.8 °F 70% 30.05 in 9.0 mi Calm Calm - N/A   Overcast
9:00 AM -16.6 °F - -23.8 °F 70% 30.04 in 9.0 mi Calm Calm - N/A   Overcast
10:00 AM -16 °F - -23 °F 56% 30.04 in 9 mi SSW 2.3 mph - -   Overcast
10:00 AM -14.8 °F - -22.0 °F 70% 30.04 in 9.0 mi South 2.3 mph - N/A   Overcast
11:00 AM -14.8 °F - -22.0 °F 70% 30.04 in 9.0 mi Calm Calm - N/A   Overcast
12:00 PM -16.6 °F - -23.8 °F 70% 30.04 in 9.0 mi SSW 2.3 mph - N/A   Overcast
1:00 PM -14 °F - -21 °F 58% 30.04 in 9 mi South 3.5 mph - -   Overcast
1:00 PM -13.0 °F -22.7 °F -20.2 °F 70% 30.04 in 9.0 mi South 3.5 mph - N/A   Overcast
2:00 PM -13.0 °F -22.7 °F -20.2 °F 70% 30.04 in 9.0 mi South 3.5 mph - N/A   Overcast
3:00 PM -13.0 °F - -18.4 °F 77% 30.04 in 9.0 mi Calm Calm - N/A   Overcast
4:00 PM -14 °F - -21 °F 58% 30.04 in 9 mi Calm Calm - -   Overcast
4:00 PM -13.0 °F - -20.2 °F 70% 30.04 in 9.0 mi Calm Calm - N/A   Overcast
4:20 PM -13.0 °F - -20.2 °F 70% 30.01 in 5.0 mi SSW 2.3 mph - N/A Snow Light Snow
4:48 PM -13.0 °F - -20.2 °F 70% 30.01 in 5.0 mi SSW 2.3 mph - N/A   Overcast
4:50 PM -13.0 °F - -20.2 °F 70% 30.01 in 5.0 mi SSW 2.3 mph - N/A Snow Light Snow
5:00 PM -13.0 °F - -20.2 °F 70% 30.04 in 4.0 mi SSW 2.3 mph - N/A Snow Light Snow
5:09 PM -13.0 °F - -20.2 °F 70% 30.01 in 4.0 mi SSW 2.3 mph - N/A   Overcast
5:47 PM -13.0 °F - -20.2 °F 70% 30.01 in 5.0 mi Calm Calm - N/A   Overcast
6:00 PM -14.8 °F - -20.2 °F 77% 30.05 in 3.5 mi SW 2.3 mph - N/A   Overcast
6:14 PM -14.8 °F - -22.0 °F 70% 30.01 in 5.0 mi Calm Calm - N/A Snow Light Snow
6:36 PM -14.8 °F - -22.0 °F 70% 30.01 in 9.0 mi Calm Calm - N/A   Overcast
7:00 PM -17 °F - -24 °F 56% 30.05 in 7 mi South 2.3 mph - -   Overcast
7:00 PM -16.6 °F - -23.8 °F 70% 30.05 in 7.0 mi South 2.3 mph - N/A   Overcast
7:38 PM -16.6 °F -26.8 °F -23.8 °F 70% 30.01 in 9.0 mi South 3.5 mph - N/A   Overcast
7:42 PM -16.6 °F -26.8 °F -23.8 °F 70% 30.01 in 9.0 mi South 3.5 mph - N/A   Overcast
8:00 PM -16.6 °F -26.8 °F -23.8 °F 70% 30.04 in 8.0 mi South 3.5 mph - N/A   Overcast
8:49 PM -14.8 °F - -22.0 °F 70% 30.00 in 8.0 mi South 2.3 mph - N/A   Overcast
8:56 PM -14.8 °F - -22.0 °F 70% 30.00 in 6.0 mi South 2.3 mph - N/A   Mostly Cloudy
8:59 PM -14.8 °F - -22.0 °F 70% 30.00 in 4.0 mi South 2.3 mph - N/A   Unknown
9:00 PM -14.8 °F - -22.0 °F 70% 30.04 in 3.5 mi South 2.3 mph - N/A   Unknown
9:06 PM -14.8 °F - -22.0 °F 70% 30.00 in 3.0 mi South 2.3 mph - N/A   Unknown
9:29 PM -14.8 °F - -22.0 °F 70% 30.00 in 9.0 mi South 2.3 mph - N/A   Mostly Cloudy
10:00 PM -16 °F - -23 °F 55% 30.03 in 7 mi South 2.3 mph - -   Overcast
10:00 PM -16.6 °F - -23.8 °F 70% 30.03 in 7.0 mi South 2.3 mph - N/A   Overcast
10:02 PM -16.6 °F - -23.8 °F 70% 30.00 in 7.0 mi South 2.3 mph - N/A   Overcast
11:09 PM -16.6 °F - -23.8 °F 70% 30.00 in 9.0 mi Calm Calm - N/A   Mostly Cloudy